Location: Grasslands National Park East Block
(49.0708°N, 106.5295°W)
Time: 17:31:07
(UTC-06:00)

Transit 2A Rocket - All Passes

Search period start: 18 October 2019 00:00
Search period end: 28 October 2019 00:00
Orbit: 594 x 910 km, 66.7° (Epoch: 17 October)

Date Brightness Start Highest point End Pass type
(mag) Time Alt. Az. Time Alt. Az. Time Alt. Az.
18 Oct - 05:34:10 10° SSE 05:38:06 23° ESE 05:41:48 10° ENE visible
18 Oct - 07:15:23 10° SW 07:20:21 60° NW 07:24:56 10° NNE daylight
18 Oct - 09:00:53 10° WNW 09:03:47 16° NNW 09:06:34 10° N daylight
18 Oct - 12:31:08 10° N 12:33:05 13° NNE 12:35:01 10° NE daylight
18 Oct - 14:12:34 10° NNW 14:16:46 46° NE 14:20:56 10° ESE daylight
18 Oct - 15:55:33 10° WNW 15:59:03 24° WSW 16:02:34 10° SSW daylight
19 Oct - 04:53:25 10° SE 04:55:50 14° ESE 04:58:10 10° ENE visible
19 Oct - 06:32:43 10° SSW 06:37:47 85° SE 06:42:27 10° NE visible
19 Oct - 08:17:11 10° W 08:20:53 21° NW 08:24:23 10° NNE daylight
19 Oct - 13:30:13 10° NNW 13:34:03 29° NE 13:37:51 10° ESE daylight
19 Oct - 15:12:38 10° NW 15:16:43 42° WSW 15:20:49 10° S daylight
20 Oct - 05:50:24 10° SSW 05:55:19 52° ESE 05:59:51 10° NE visible
20 Oct - 07:33:45 10° WSW 07:38:04 30° NW 07:42:06 10° NNE daylight
20 Oct - 09:21:19 10° NNW 09:22:05 10° NNW 09:22:49 10° N daylight
20 Oct - 12:47:57 10° NNW 12:51:15 21° NE 12:54:31 10° E daylight
20 Oct - 14:29:57 10° NW 14:34:17 75° WSW 14:38:37 10° SSE daylight
21 Oct - 05:08:29 10° S 05:12:55 31° ESE 05:17:03 10° NE visible
21 Oct - 06:50:37 10° WSW 06:55:21 44° NW 06:59:46 10° NNE visible
21 Oct - 08:36:49 10° NW 08:39:01 13° NNW 08:41:10 10° N daylight
21 Oct - 12:05:46 10° N 12:08:20 15° NNE 12:10:52 10° ENE daylight
21 Oct - 13:47:27 10° NNW 13:51:45 64° NE 13:56:03 10° SE daylight
21 Oct - 15:30:59 10° WNW 15:33:48 17° WSW 15:36:38 10° SSW daylight
22 Oct - 04:27:07 10° SSE 04:30:36 19° ESE 04:33:55 10° ENE visible
22 Oct - 06:07:45 10° SW 06:12:45 71° NW 06:17:21 10° NNE visible
22 Oct - 07:52:55 10° WNW 07:56:03 17° NNW 07:59:04 10° N daylight
22 Oct - 11:23:48 10° N 11:25:20 12° NNE 11:26:50 10° NE daylight
22 Oct - 13:05:02 10° NNW 13:09:07 39° NE 13:13:11 10° ESE daylight
22 Oct - 14:47:47 10° NW 14:51:32 29° WSW 14:55:19 10° S daylight
23 Oct - 03:47:09 10° ESE 03:48:23 11° ESE 03:49:36 10° E visible
23 Oct - 05:25:13 10° SSW 05:30:13 72° ESE 05:34:50 10° NE visible
23 Oct - 07:09:18 10° W 07:13:11 24° NW 07:16:51 10° NNE visible
23 Oct - 12:22:42 10° NNW 12:26:23 26° NE 12:30:01 10° E daylight
23 Oct - 14:04:58 10° NW 14:09:10 52° WSW 14:13:23 10° SSE daylight
24 Oct - 04:43:01 10° S 04:47:46 43° ESE 04:52:09 10° NE visible
24 Oct - 06:25:58 10° WSW 06:30:24 34° NW 06:34:34 10° NNE visible
24 Oct - 08:13:00 10° NW 08:14:18 11° NNW 08:15:35 10° N daylight
24 Oct - 11:40:28 10° NNW 11:43:32 18° NNE 11:46:34 10° ENE daylight
24 Oct - 13:22:21 10° NW 13:26:42 90° ESE 13:31:03 10° SE daylight
24 Oct - 15:07:00 10° W 15:08:31 12° WSW 15:10:03 10° SW daylight
25 Oct - 04:01:16 10° S 04:05:24 26° ESE 04:09:16 10° ENE visible
25 Oct - 05:42:55 10° SW 05:47:44 52° NW 05:52:12 10° NNE visible
25 Oct - 07:28:46 10° WNW 07:31:16 14° NNW 07:33:42 10° N daylight
25 Oct - 10:58:21 10° N 11:00:35 14° NNE 11:02:48 10° ENE daylight
25 Oct - 12:39:53 10° NNW 12:44:08 53° NE 12:48:23 10° SE daylight
25 Oct - 14:23:05 10° WNW 14:26:18 21° WSW 14:29:34 10° SSW daylight
26 Oct - 03:20:12 10° SE 03:23:07 16° ESE 03:25:54 10° ENE visible
26 Oct - 05:00:10 10° SW 05:05:09 83° NW 05:09:45 10° NE visible
26 Oct - 06:44:58 10° W 06:48:20 19° NNW 06:51:34 10° NNE visible
26 Oct - 10:16:35 10° N 10:17:33 11° NNE 10:18:30 10° NNE daylight
26 Oct - 11:57:30 10° NNW 12:01:28 33° NE 12:05:24 10° ESE daylight
26 Oct - 13:40:03 10° NW 13:44:00 36° WSW 13:47:59 10° S daylight
27 Oct - 04:17:45 10° SSW 04:22:39 60° ESE 04:27:11 10° NE visible
27 Oct - 06:01:27 10° W 06:05:30 26° NW 06:09:19 10° NNE visible
27 Oct - 11:15:12 10° NNW 11:18:41 23° NE 11:22:09 10° E daylight
27 Oct - 12:57:19 10° NW 13:01:35 63° WSW 13:05:55 10° SSE daylight
